Location: Le Domaine
(47.0333°N, 76.5361°W)
Time: 13:51:40
(UTC-05:00)

Explorer 11/Cluster Stage 4 - Pass Details

Date: 19 November 2019
Orbit: 467 x 1259 km, 28.8° (Epoch: 11 December)

Event Time Altitude Azimuth Distance (km) Brightness Sun altitude
Rises 21:43:30 0° 235° (SW) 3,459 - -52.2°
Reaches altitude 10° 21:46:58 10° 214° (SW) 2,683 - -52.6°
Maximum altitude 21:50:49 16° 179° (S) 2,418 - -53.2°
Drops below altitude 10° 21:55:01 10° 144° (SE) 2,995 - -53.7°
Sets 21:59:14 0° 125° (SE) 4,075 - -54.3°
